User: anonymous   Login
Location: *
(53.9002°N, 27.5624°E)
Time: 13:51:30
(UTC+00:00)
Language:

Cosmos 1892 - Orbit

View from above orbital plane
View from above orbital plane
View from above satellite
View from above satellite

Ground track
Ground track

The orbit data is extracted from the following two-line orbital elements,

1 18421U 87088A   20021.52749806 +.00000418 +00000-0 +19458-4 0  9997
2 18421 082.4989 059.9389 0014199 214.6515 145.3794 15.17017911762123
Epoch (UTC): 21 January 2020 12:39:35
Eccentricity: 0.0014199
inclination: 82.4989°
perigee height: 505 km
apogee height: 524 km
right ascension of ascending node: 59.9389°
argument of perigee: 214.6515°
revolutions per day: 15.17017911
mean anomaly at epoch: 145.3794°
orbit number at epoch: 76212

The dashed part of the orbit path shows where the satellite is in the earth's shadow,  

DLR